Regional Weather Roundup
Issued by NWS Mt. Holly, NJ

Home | Current Version | Previous Version | Text Only | Print | Product List | Glossary On
Versions: 1 2 3 4 5 6 7 8 9 10 11 12 13 14 15 16 17 18 19 20 21 22 23 24 25 26 27
000
ASUS41 KPHI 232112
RWRPHI

REGIONAL WEATHER ROUNDUP
NATIONAL WEATHER SERVICE MOUNT HOLLY NJ
500 PM EDT SUN JUL 23 2017

NOTE:  "FAIR" INDICATES FEW OR NO CLOUDS BELOW 12,000 FEET WITH NO
SIGNIFICANT WEATHER AND/OR OBSTRUCTIONS TO VISIBILITY.

 * = STATION DOES NOT REPORT PRECIPITATION (E.G. RAIN, SNOW, ETC.)
        OR FOG.

NJZ015>026-232200-
SOUTHERN NEW JERSEY

CITY           SKY/WX    TMP DP  RH WIND       PRES   REMARKS
POMONA         CLOUDY    79  71  76 E12       29.82R
MILLVILLE      LGT RAIN  78  77  96 SE8       29.79R
WRIGHTSTOWN    PTSUNNY   80  66  62 N7        29.79S
MOUNT HOLLY    CLOUDY    81  67  62 SE5       29.78F
TRENTON        MOSUNNY   82  67  60 E8        29.80R

$$
NJZ001>014-232200-
NORTHERN NEW JERSEY

CITY           SKY/WX    TMP DP  RH WIND       PRES   REMARKS
SUSSEX         CLOUDY    75  67  76 S3        29.82S
ANDOVER*         N/A     73  68  84 CALM      29.83S
MORRISTOWN     PTSUNNY   79  66  65 SE7       29.82S
NEWARK         CLOUDY    78  66  66 SE10G20   29.82R
TETERBORO      PTSUNNY   80  69  69 VRB5      29.81S
CALDWELL       CLOUDY    78 N/A N/A E5        29.82S
SOMERVILLE     CLOUDY    80  70  71 E3        29.79R
ALLAIRE*       SUNNY     78  67  68 E9        29.84R
TOMS RIVER*    CLOUDY    80  68  66 E9G17     29.83R

$$
PAZ043-044-047-054-055-060>062-066>071-232200-
EASTERN PENNSYLVANIA

CITY           SKY/WX    TMP DP  RH WIND       PRES   REMARKS
PHILADELPHIA   CLOUDY    85  70  60 E8        29.78S
NORTH PHILA    MOSUNNY   85  68  56 E10       29.80F
BLUE BELL*     PTSUNNY   79  70  73 E7        29.80F
DOYLESTOWN     PTSUNNY   81  68  64 CALM      29.80S
QUAKERTOWN*    MOSUNNY   82  68  61 SE8       29.81F
PERKASIE*      MOCLDY    81  68  65 E6        29.81F
POTTSTOWN      PTSUNNY   80  71  74 E5        29.80F
LANCASTER      PTSUNNY   84  74  71 E8        29.75F HX  91
COATESVILLE    MOSUNNY   81  72  74 VRB3      29.80S
READING        PTSUNNY   83  73  72 VRB6      29.75F
ALLENTOWN      MOSUNNY   84  68  58 SE12      29.79F
MOUNT POCONO   PTSUNNY   71  67  87 E8        29.87S
HAZLETON         N/A     77  68  73 E7        29.86S
LEHIGHTON      MOCLDY    81  68  65 SE6       29.79F
WILKES BARRE   CLOUDY    79  67  66 SE9       29.79F

$$
DEZALL-MDZ008-012-015-019-020-232200-
DELAWARE AND EASTERN MARYLAND

CITY           SKY/WX    TMP DP  RH WIND       PRES   REMARKS
WILMINGTON     LGT RAIN  82  76  81 SE8       29.77F
DOVER          MOSUNNY   73  73 100 N13G20    29.76F
GEORGETOWN     LGT RAIN  82  74  76 CALM      29.78F
EASTON         MOSUNNY   77  73  88 SW8       29.80F
ABERDEEN       CLOUDY    78  74  88 E8        29.75F
PATUXENT       CLOUDY    84  75  74 VRB3      29.78F HX  92
OCEAN CITY     TSTM      79  75  87 W12G24    29.81R VSB 1
WALLOPS ISLAND CLOUDY    86  74  67 NW7       29.81R HX  94
CAMBRIDGE      SUNNY     79  73  83 CALM      29.77F
SALISBURY      PTSUNNY   75  75 100 SE7       29.79F

$$
PAZ001-021-NYZ056-072-MDZ011-DCZ001-232200-
OTHER NEARBY LOCATIONS

CITY           SKY/WX    TMP DP  RH WIND       PRES   REMARKS
HARRISBURG     PTSUNNY   85  74  69 SE13      29.71F HX  92
STATE COLLEGE  MOSUNNY   84  72  65 SW7       29.76F
WILLIAMSPORT   CLOUDY    83  73  72 E9        29.72F
BINGHAMTON     CLOUDY    74  64  71 SE10      29.81F
NEW YORK CITY  CLOUDY    76  69  79 VRB5      29.85R
BALTIMORE      PTSUNNY   80  76  87 SW8       29.76S
WASHINGTON DC  CLOUDY    82  77  84 S6        29.77F HX  90

$$




USA.gov is the U.S. government's official web portal to all federal, state and local government web resources and services.